Location: Unspecified
(0.0000°N, 0.0000°E)
Time: 11:24:00
(UTC+00:00)

KAITUO 1B - Pass Details

Date: 24 July 2019
Orbit: 497 x 515 km, 97.5° (Epoch: 08 December)

Event Time Altitude Azimuth Distance (km) Brightness Sun altitude
Rises 05:04:26 0° 46° (NE) 2,606 ? -14.6°
Reaches altitude 10° 05:07:39 10° 77° (ENE) 1,729 ? -13.8°
Maximum altitude 05:09:10 12° 102° (ESE) 1,600 ? -13.5°
Drops below altitude 10° 05:10:42 10° 126° (SE) 1,736 ? -13.1°
Sets 05:13:56 0° 157° (SSE) 2,630 ? -12.4°
